Location: Hopkins Observatory
(42.6965°N, 73.1843°W)
Time: 04:14:23
(UTC-04:00)

Amateur Radio Satellites - All Passes

Search period start: 29 May 2015 03:44
Search period end: 30 May 2015 03:44
Location: Hopkins Observatory, 42.6965°N, 73.1843°W

Satellite Date Start Highest point End Downlink Frequencies (MHz)
Time Altitude Azimuth
BEESAT 3 29 May 03:46:13 03:48:48 16° 249° (WSW) 03:51:14 437.485
SO-50 29 May 03:51:39 03:56:10 42° 311° (NW) 04:00:49 436.795
ISS 29 May 03:53:47 03:56:37 27° 19° (NNE) 03:59:29 145.825
AO-7 29 May 04:06:35 04:13:51 33° 95° (E) 04:21:15 29.400- 29.500
HORYU 2 29 May 04:08:04 04:12:05 33° 96° (E) 04:16:06 437.375
Gurwin Techsat 1B 29 May 04:22:38 04:27:27 35° 292° (WNW) 04:32:12 435.225
STARS 29 May 04:24:36 04:27:44 18° 269° (W) 04:30:45 437.465
PHONESAT 2.4 29 May 04:30:30 04:33:56 60° 178° (S) 04:37:22 2401.200-2431.200
AIST 2 29 May 04:42:00 04:45:02 19° 248° (WSW) 04:47:56 435.215
Cosmos 2491 29 May 04:53:48 04:59:54 21° 60° (ENE) 05:06:20 435.465 / 435.565
JAS-2 29 May 05:08:15 05:13:25 71° 286° (WNW) 05:18:46 435.910
MOZHAYETS 4 29 May 05:09:35 05:13:58 46° 261° (W) 05:18:23
VERMONT LUNAR 29 May 05:12:28 05:15:24 33° 198° (SSW) 05:18:19 437.305
ITAMSAT 1 29 May 05:13:03 05:15:35 13° 301° (WNW) 05:17:53 435.822/435.867
CUBESAT XI-V 29 May 05:18:48 05:22:04 20° 66° (ENE) 05:25:27 437.345
ISS 29 May 05:30:00 05:33:13 56° 218° (SW) 05:36:25 145.825
SO-50 29 May 05:37:15 05:38:06 10° 334° (NNW) 05:38:48 436.795
PRISM 29 May 05:43:37 05:45:51 15° 64° (ENE) 05:48:14 437.425
HORYU 2 29 May 05:44:59 05:48:35 24° 293° (WNW) 05:52:06 437.375
YUBILEINY 29 May 05:48:37 05:53:08 16° 78° (ENE) 05:58:11 435.215
STRAND 1 29 May 05:54:34 05:58:23 22° 64° (ENE) 06:02:20 437.568
M-CUBED/EXP-1 PRIME 29 May 05:55:56 05:57:48 13° 61° (ENE) 05:59:46 437.505
AO-7 29 May 05:58:55 06:07:06 59° 294° (WNW) 06:15:14 29.400- 29.500
AUBIESAT-1 29 May 06:01:52 06:03:42 13° 61° (ENE) 06:05:38 437.475
CUTE-I 29 May 06:02:19 06:05:26 16° 89° (E) 06:08:48 437.470
PHONESAT 2.4 29 May 06:08:33 06:11:52 42° 194° (SSW) 06:15:09 2401.200-2431.200
Cubesat XI-IV 29 May 06:22:45 06:27:05 25° 93° (E) 06:31:31 437.490
Cosmos 2491 29 May 06:49:19 06:58:13 89° 266° (W) 07:07:01 435.465 / 435.565
CUBESAT XI-V 29 May 06:54:48 06:59:14 45° 262° (W) 07:03:40 437.345
PRISM 29 May 07:16:58 07:20:56 50° 260° (W) 07:24:57 437.425
RS-15 29 May 07:24:48 07:32:50 26° 104° (ESE) 07:41:27 29.354- 29.394
M-CUBED/EXP-1 PRIME 29 May 07:28:16 07:32:23 57° 254° (WSW) 07:36:09 437.505
STRAND 1 29 May 07:32:23 07:37:18 48° 261° (W) 07:42:15 437.568
AUBIESAT-1 29 May 07:34:09 07:38:13 56° 254° (WSW) 07:41:57 437.475
YUBILEINY 29 May 07:39:59 07:48:45 82° 96° (E) 07:57:31 435.215
CUTE-I 29 May 07:40:45 07:46:06 68° 287° (WNW) 07:51:26 437.470
PHONESAT 2.4 29 May 07:47:29 07:49:29 14° 209° (SSW) 07:51:25 2401.200-2431.200
AIST 1 29 May 07:48:02 07:52:28 89° 248° (WSW) 07:56:52
AO-7 29 May 07:54:01 07:58:20 15° 315° (NW) 08:02:16 29.400- 29.500
HO-68 29 May 07:56:39 07:58:43 12° 84° (E) 08:01:20 435.675
Cubesat XI-IV 29 May 08:02:18 08:07:25 44° 290° (WNW) 08:12:28 437.490
PCSat 29 May 08:03:08 08:06:33 17° 38° (NE) 08:10:07 145.827
Cosmos 2491 29 May 08:48:17 08:53:58 18° 282° (WNW) 08:59:08 435.465 / 435.565
GOMX 1 29 May 08:48:31 08:53:31 40° 95° (E) 08:58:16 467.674
BRITE-PL 29 May 08:58:09 09:03:50 77° 101° (E) 09:09:12 437.365/2234.400
CINEMA 3 29 May 08:58:39 09:01:05 14° 87° (E) 09:03:40 145.822/145.860
CANX-2 29 May 09:09:31 09:13:29 39° 97° (E) 09:17:26 2200.000
CUTE 1.7 + AOD 2 29 May 09:12:41 09:16:38 38° 97° (E) 09:20:35 437.475
Cosmos 2504 29 May 09:16:06 09:23:20 37° 88° (E) 09:30:18 435.465 / 435.565
CUTE-I 29 May 09:24:41 09:25:19 10° 304° (WNW) 09:25:37 437.470
Oscar 11 29 May 09:30:44 09:33:22 16° 90° (E) 09:36:10 145.826/435.025
SEEDS 29 May 09:31:16 09:35:21 51° 99° (E) 09:39:26 437.485
RS-15 29 May 09:33:04 09:44:00 84° 305° (NW) 09:55:18 29.354- 29.394
CUBEBUG 2 29 May 09:33:21 09:35:58 16° 89° (E) 09:38:43 437.445
DOVE 4 29 May 09:37:12 09:42:20 76° 101° (ESE) 09:47:07 437.250
ANTELSAT 29 May 09:37:40 09:41:11 22° 67° (ENE) 09:44:47 437.575/2403.000
YUBILEINY 29 May 09:40:06 09:46:48 23° 299° (WNW) 09:53:11 435.215
COMPASS 1 29 May 09:40:29 09:44:32 52° 99° (E) 09:48:35 437.405
HO-68 29 May 09:40:43 09:47:53 72° 104° (ESE) 09:55:01 435.675
PCSat 29 May 09:45:25 09:50:53 85° 62° (ENE) 09:56:18 145.827
AAUSAT CUBESAT 2 29 May 09:50:26 09:54:31 58° 100° (E) 09:58:36 437.432
DELFI C3 29 May 10:01:23 10:04:39 24° 94° (E) 10:07:59 145.870
QB50P1 29 May 10:02:36 10:05:20 17° 65° (ENE) 10:08:12 145.935-145.965
POLYITAN 1 29 May 10:05:46 10:08:43 19° 66° (ENE) 10:11:49 437.675
TIGRISAT 29 May 10:08:17 10:12:40 42° 72° (ENE) 10:17:02 435.000
UWE-3 29 May 10:14:22 10:18:21 34° 96° (E) 10:22:15 435.000/436.395/437.385
FUNcube-1 29 May 10:17:44 10:21:27 28° 95° (E) 10:25:08 145.935
GOMX 1 29 May 10:26:56 10:31:26 27° 294° (WNW) 10:35:40 467.674
UNISAT 6 29 May 10:29:33 10:34:13 72° 74° (ENE) 10:38:51 437.425
NANOSAT C BR1 29 May 10:31:44 10:35:32 33° 70° (ENE) 10:39:26 145.865
HUMSAT D 29 May 10:33:09 10:36:06 19° 92° (E) 10:39:09 437.325/437.525
CINEMA 3 29 May 10:34:10 10:38:49 58° 287° (WNW) 10:43:13 145.822/145.860
BRITE-PL 29 May 10:38:03 10:41:40 17° 299° (WNW) 10:45:00 437.365/2234.400
QB50P2 29 May 10:41:24 10:45:28 43° 72° (ENE) 10:49:35 145.880/145.840
SO-50 29 May 10:41:59 10:46:29 33° 46° (NE) 10:50:56 436.795
CANX-2 29 May 10:46:09 10:49:09 19° 293° (WNW) 10:52:04 2200.000
CUTE 1.7 + AOD 2 29 May 10:49:15 10:52:19 19° 293° (WNW) 10:55:16 437.475
DUCHIFAT 1 29 May 10:52:41 10:56:51 54° 73° (ENE) 11:01:05 145.980
POPSAT HIP 1 29 May 10:52:51 10:57:03 56° 74° (ENE) 11:01:18 437.405
50 SAT 29 May 10:54:08 10:56:42 17° 92° (E) 10:59:23 437.505
UKube-1 29 May 10:55:38 10:59:34 32° 97° (E) 11:03:30 .
ZACube-1 29 May 10:58:59 11:03:20 86° 102° (ESE) 11:07:33 437.345
BUGSAT 1 29 May 11:04:16 11:08:17 50° 73° (ENE) 11:12:25 437.445
Oscar 11 29 May 11:05:43 11:09:51 45° 288° (WNW) 11:13:57 145.826/435.025
DX 1 29 May 11:07:59 11:12:15 48° 99° (E) 11:16:30 434.975-435.025
SEEDS 29 May 11:08:20 11:10:47 15° 295° (WNW) 11:13:06 437.485
Cosmos 2504 29 May 11:08:43 11:16:37 46° 286° (WNW) 11:23:57 435.465 / 435.565
CUBEBUG 2 29 May 11:08:45 11:13:03 47° 288° (WNW) 11:17:09 437.445
ANTELSAT 29 May 11:13:18 11:17:44 41° 262° (W) 11:22:07 437.575/2403.000
DOVE 4 29 May 11:16:37 11:19:25 15° 299° (WNW) 11:21:56 437.250
COMPASS 1 29 May 11:17:29 11:19:50 15° 295° (WNW) 11:22:04 437.405
CUBEBUG 1 29 May 11:23:38 11:26:47 19° 92° (E) 11:30:03 437.445
AAUSAT CUBESAT 2 29 May 11:27:39 11:29:43 13° 296° (WNW) 11:31:36 437.432
HO-68 29 May 11:29:28 11:35:03 25° 302° (WNW) 11:40:25 435.675
PCSat 29 May 11:30:59 11:33:39 13° 256° (WSW) 11:36:00 145.827
VELOX 1 29 May 11:32:06 11:36:24 44° 99° (E) 11:40:41 145.980
DANDE 29 May 11:33:36 11:38:01 17° 79° (ENE) 11:43:13 436.750
DELFI C3 29 May 11:36:20 11:39:45 27° 290° (WNW) 11:43:07 145.870
QB50P1 29 May 11:36:44 11:40:52 47° 261° (W) 11:45:02 145.935-145.965
POLYITAN 1 29 May 11:40:15 11:44:22 42° 262° (W) 11:48:29 437.675
ESTCUBE 1 29 May 11:45:09 11:49:21 37° 97° (E) 11:53:34 437.505/2401.250
CUSAT 1 29 May 11:45:23 11:51:28 28° 85° (E) 11:58:14 437.405
TIGRISAT 29 May 11:46:02 11:49:36 21° 268° (W) 11:53:02 435.000
RS-15 29 May 11:48:45 11:58:22 32° 333° (NNW) 12:08:11 29.354- 29.394
UWE-3 29 May 11:51:18 11:54:43 22° 293° (WNW) 11:57:58 435.000/436.395/437.385
FUNcube-1 29 May 11:54:07 11:57:43 25° 292° (WNW) 12:01:09 145.935
SPROUT 29 May 11:54:14 11:55:12 11° 87° (E) 11:56:26 437.525
AISAT 29 May 12:04:35 12:09:06 80° 285° (WNW) 12:13:35 437.250
TISAT 1 29 May 12:07:33 12:08:18 11° 87° (E) 12:09:18 437.305
NANOSAT C BR1 29 May 12:08:02 12:11:28 22° 267° (W) 12:14:49 145.865
HUMSAT D 29 May 12:08:12 12:12:01 35° 289° (WNW) 12:15:44 437.325/437.525
UNISAT 6 29 May 12:09:35 12:11:33 12° 272° (W) 12:13:16 437.425
GONETS M04 29 May 12:10:41 12:18:00 32° 84° (E) 12:25:33
QB50P2 29 May 12:18:41 12:21:37 17° 269° (W) 12:24:25 145.880/145.840
SO-50 29 May 12:22:29 12:27:05 37° 244° (WSW) 12:31:33 436.795
50 SAT 29 May 12:28:02 12:31:34 34° 289° (WNW) 12:35:03 437.505
DUCHIFAT 1 29 May 12:30:47 12:33:04 14° 271° (W) 12:35:10 145.980
POPSAT HIP 1 29 May 12:31:09 12:33:22 13° 271° (W) 12:35:23 437.405
UKube-1 29 May 12:32:01 12:35:34 24° 293° (WNW) 12:39:02 .
BUGSAT 1 29 May 12:41:45 12:44:07 14° 271° (W) 12:46:21 437.445
DX 1 29 May 12:45:11 12:48:10 18° 295° (WNW) 12:51:01 434.975-435.025
Oscar 19 29 May 12:51:26 12:56:14 40° 69° (ENE) 13:01:05 437.125/150
CUBEBUG 1 29 May 12:59:09 13:03:22 41° 289° (WNW) 13:07:31 437.445
VELOX 1 29 May 13:09:25 13:12:41 19° 295° (WNW) 13:15:48 145.980
DANDE 29 May 13:12:33 13:19:58 81° 98° (E) 13:28:35 436.750
ITAMSAT 1 29 May 13:12:46 13:16:22 20° 63° (ENE) 13:20:09 435.822/435.867
AO-7 29 May 13:20:36 13:23:05 12° 42° (NE) 13:26:01 29.400- 29.500
ESTCUBE 1 29 May 13:22:26 13:26:02 23° 293° (WNW) 13:29:33 437.505/2401.250
CUSAT 1 29 May 13:25:54 13:33:31 70° 283° (WNW) 13:41:53 437.405
SPROUT 29 May 13:27:32 13:31:52 70° 285° (WNW) 13:36:09 437.525
Cosmos 2499 29 May 13:39:58 13:45:00 19° 83° (E) 13:50:11 435.465 / 435.565
TISAT 1 29 May 13:40:23 13:44:39 70° 285° (WNW) 13:48:52 437.305
Gurwin Techsat 1B 29 May 14:04:27 14:09:34 53° 72° (ENE) 14:14:46 435.225
GONETS M04 29 May 14:05:43 14:14:25 59° 284° (WNW) 14:23:08
RS-15 29 May 14:06:54 14:15:30 24° 7° (N) 14:24:29 29.354- 29.394
ITUPSAT 1 29 May 14:12:11 14:16:39 38° 97° (E) 14:21:08 437.325
BEESAT 29 May 14:18:02 14:22:37 45° 99° (E) 14:27:12 436.000
SWISSCUBE 29 May 14:26:53 14:31:38 60° 101° (E) 14:36:22 437.505
Oscar 19 29 May 14:31:20 14:35:44 27° 266° (W) 14:40:03 437.125/150
ITAMSAT 1 29 May 14:50:26 14:55:31 56° 260° (W) 15:00:37 435.822/435.867
DANDE 29 May 14:58:02 15:04:22 25° 300° (WNW) 15:11:00 436.750
AO-7 29 May 15:06:14 15:14:01 49° 63° (ENE) 15:21:57 29.400- 29.500
HORYU 2 29 May 15:07:01 15:11:03 35° 70° (ENE) 15:15:08 437.375
CUSAT 1 29 May 15:12:56 15:17:59 17° 305° (NW) 15:22:46 437.405
KKS-1 29 May 15:14:49 15:18:48 31° 96° (E) 15:22:47 437.445
O/OREOS (USA 219) 29 May 15:14:59 15:19:24 58° 109° (ESE) 15:23:50 437.305
JAS-2 29 May 15:20:26 15:26:43 54° 72° (ENE) 15:32:20 435.910
Cosmos 2499 29 May 15:29:25 15:37:30 79° 279° (W) 15:44:59 435.465 / 435.565
Gurwin Techsat 1B 29 May 15:45:58 15:49:56 20° 269° (W) 15:53:45 435.225
ITUPSAT 1 29 May 15:50:28 15:54:22 25° 294° (WNW) 15:58:10 437.325
BEESAT 29 May 15:56:34 16:00:11 21° 295° (WNW) 16:03:43 436.000
SWISSCUBE 29 May 16:05:59 16:09:04 17° 297° (WNW) 16:11:58 437.505
GONETS M04 29 May 16:10:21 16:13:47 12° 309° (NW) 16:16:35
STARS 29 May 16:11:51 16:16:19 80° 104° (ESE) 16:20:43 437.465
RS-15 29 May 16:21:02 16:31:53 45° 39° (NE) 16:43:19 29.354- 29.394
HORYU 2 29 May 16:44:10 16:47:48 23° 266° (W) 16:51:20 437.375
KKS-1 29 May 16:51:34 16:55:21 26° 292° (WNW) 16:59:00 437.445
BEESAT 2 29 May 16:54:01 16:57:03 21° 113° (ESE) 17:00:12 435.950
O/OREOS (USA 219) 29 May 16:56:17 16:59:15 17° 308° (NW) 17:02:06 437.305
AO-7 29 May 16:59:17 17:07:00 41° 263° (W) 17:14:41 29.400- 29.500
MOZHAYETS 4 29 May 17:03:48 17:08:04 38° 97° (E) 17:12:21
JAS-2 29 May 17:06:52 17:12:06 24° 267° (W) 17:16:45 435.910
CUTE-I 29 May 17:24:31 17:28:58 29° 66° (ENE) 17:33:33 437.470
Cosmos 2499 29 May 17:27:34 17:32:00 15° 301° (WNW) 17:35:51 435.465 / 435.565
BEESAT 3 29 May 17:37:57 17:42:00 75° 122° (ESE) 17:46:08 437.485
Cubesat XI-IV 29 May 17:45:23 17:50:22 44° 70° (ENE) 17:55:26 437.490
YUBILEINY 29 May 17:49:30 17:57:36 42° 71° (ENE) 18:05:46 435.215
STARS 29 May 17:50:37 17:52:11 11° 299° (WNW) 17:53:31 437.465
Cosmos 2491 29 May 17:57:32 18:03:34 22° 80° (E) 18:10:01 435.465 / 435.565
HO-68 29 May 18:27:47 18:30:13 12° 49° (NE) 18:33:02 435.675
BEESAT 2 29 May 18:31:00 18:34:54 40° 310° (NW) 18:38:51 435.950
RS-15 29 May 18:33:35 18:45:05 66° 243° (WSW) 18:56:58 29.354- 29.394
BRITE-PL 29 May 18:33:59 18:36:28 14° 59° (ENE) 18:39:16 437.365/2234.400
AIST 2 29 May 18:39:06 18:43:21 75° 122° (ESE) 18:47:39 435.215
MOZHAYETS 4 29 May 18:41:31 18:45:07 22° 293° (WNW) 18:48:36
CUBESAT XI-V 29 May 18:50:30 18:54:58 42° 98° (E) 18:59:26 437.345
PRISM 29 May 18:59:02 19:02:06 20° 93° (E) 19:05:17 437.425
CUTE-I 29 May 19:04:00 19:08:57 38° 263° (W) 19:13:54 437.470
DOVE 4 29 May 19:08:51 19:10:44 12° 59° (ENE) 19:12:53 437.250
Cosmos 2504 29 May 19:10:03 19:11:31 11° 54° (NE) 19:13:29 435.465 / 435.565
BEESAT 3 29 May 19:17:59 19:20:31 15° 321° (NW) 19:22:59 437.485
Cubesat XI-IV 29 May 19:26:21 19:30:42 25° 267° (W) 19:34:58 437.490
STRAND 1 29 May 19:41:52 19:46:55 54° 100° (E) 19:51:58 437.568
YUBILEINY 29 May 19:46:24 19:54:30 44° 272° (W) 20:02:30 435.215
Cosmos 2491 29 May 19:50:42 19:59:32 80° 279° (W) 20:08:26 435.465 / 435.565
GOMX 1 29 May 19:56:31 20:01:30 46° 71° (ENE) 20:06:44 467.674
CINEMA 3 29 May 20:00:39 20:03:53 18° 64° (ENE) 20:07:17 145.822/145.860
CANX-2 29 May 20:03:16 20:07:01 32° 70° (ENE) 20:10:49 2200.000
CUTE 1.7 + AOD 2 29 May 20:06:22 20:10:06 31° 70° (ENE) 20:13:53 437.475
BRITE-PL 29 May 20:08:55 20:14:08 88° 80° (E) 20:19:46 437.365/2234.400
HO-68 29 May 20:09:39 20:16:38 58° 68° (ENE) 20:23:40 435.675
AIST 1 29 May 20:18:11 20:22:18 51° 94° (E) 20:26:30
AIST 2 29 May 20:19:41 20:22:28 16° 321° (NW) 20:25:10 435.215
SEEDS 29 May 20:24:00 20:27:55 39° 72° (ENE) 20:31:52 437.485
Oscar 11 29 May 20:26:54 20:29:19 15° 65° (ENE) 20:31:55 145.826/435.025
CUBESAT XI-V 29 May 20:28:31 20:32:10 22° 294° (WNW) 20:35:42 437.345
CUBEBUG 2 29 May 20:32:11 20:35:16 18° 65° (ENE) 20:38:31 437.445
COMPASS 1 29 May 20:32:23 20:36:17 39° 72° (ENE) 20:40:11 437.405
PRISM 29 May 20:33:52 20:37:41 34° 290° (WNW) 20:41:27 437.425
AAUSAT CUBESAT 2 29 May 20:41:51 20:45:47 42° 72° (ENE) 20:49:44 437.432
DOVE 4 29 May 20:42:29 20:47:40 81° 76° (ENE) 20:53:02 437.250
M-CUBED/EXP-1 PRIME 29 May 20:43:20 20:46:39 84° 292° (WNW) 20:50:00 437.505
AUBIESAT-1 29 May 20:48:34 20:51:54 85° 283° (WNW) 20:55:14 437.475
RS-15 29 May 20:49:49 20:55:43 14° 262° (W) 21:00:36 29.354- 29.394
DELFI C3 29 May 20:50:11 20:52:50 18° 67° (ENE) 20:55:36 145.870
Cosmos 2504 29 May 20:59:35 21:06:44 66° 79° (ENE) 21:13:55 435.465 / 435.565
UWE-3 29 May 21:11:50 21:16:01 34° 70° (ENE) 21:20:14 435.000/436.395/437.385
FUNcube-1 29 May 21:14:01 21:17:51 28° 69° (ENE) 21:21:44 145.935
STRAND 1 29 May 21:21:57 21:25:46 21° 296° (WNW) 21:29:27 437.568
HUMSAT D 29 May 21:26:06 21:28:50 17° 66° (ENE) 21:31:43 437.325/437.525
AISAT 29 May 21:30:00 21:31:18 11° 61° (ENE) 21:32:49 437.250
GOMX 1 29 May 21:35:35 21:39:52 24° 270° (W) 21:44:11 467.674
CINEMA 3 29 May 21:35:40 21:40:38 61° 260° (W) 21:45:38 145.822/145.860
CANX-2 29 May 21:39:34 21:43:01 23° 267° (W) 21:46:22 2200.000
50 SAT 29 May 21:40:39 21:42:23 13° 65° (ENE) 21:44:17 437.505
CUTE 1.7 + AOD 2 29 May 21:42:36 21:46:04 23° 267° (W) 21:49:27 437.475
UKube-1 29 May 21:51:16 21:55:04 31° 69° (ENE) 21:58:55 .
BRITE-PL 29 May 21:51:23 21:53:37 12° 277° (W) 21:55:33 437.365/2234.400
Cosmos 2491 29 May 21:52:27 21:58:12 18° 303° (WNW) 22:03:30 435.465 / 435.565
ZACube-1 29 May 21:55:02 21:59:37 74° 75° (ENE) 22:04:12 437.345
AIST 1 29 May 21:57:59 22:00:22 14° 293° (WNW) 22:02:37
HO-68 29 May 21:58:44 22:04:49 28° 267° (W) 22:10:44 435.675
Oscar 11 29 May 22:00:52 22:05:07 54° 260° (W) 22:09:23 145.826/435.025
SEEDS 29 May 22:00:56 22:03:55 18° 269° (W) 22:06:47 437.485
DX 1 29 May 22:04:12 22:08:21 46° 72° (ENE) 22:12:34 434.975-435.025
CUBEBUG 2 29 May 22:06:54 22:11:35 55° 261° (W) 22:16:16 437.445
COMPASS 1 29 May 22:09:12 22:12:09 18° 269° (W) 22:14:58 437.405
ISS 29 May 22:09:47 22:12:33 27° 137° (SE) 22:15:23 145.825
DANDE 29 May 22:14:10 22:17:57 15° 51° (NE) 22:21:44 436.750
AAUSAT CUBESAT 2 29 May 22:18:55 22:21:39 16° 269° (W) 22:24:13 437.432
GONETS M04 29 May 22:20:09 22:24:55 16° 55° (NE) 22:30:10
CUBEBUG 1 29 May 22:20:58 22:23:55 19° 65° (ENE) 22:27:02 437.445
UNISAT 6 29 May 22:22:46 22:24:45 13° 88° (E) 22:26:57 437.425
DOVE 4 29 May 22:23:38 22:26:11 13° 275° (W) 22:28:26 437.250
DELFI C3 29 May 22:23:54 22:27:42 38° 263° (W) 22:31:28 145.870
CUSAT 1 29 May 22:24:15 22:28:55 19° 56° (NE) 22:33:08 437.405
VELOX 1 29 May 22:30:21 22:34:32 43° 71° (ENE) 22:38:48 145.980
ESTCUBE 1 29 May 22:45:33 22:49:40 37° 70° (ENE) 22:53:50 437.505/2401.250
UWE-3 29 May 22:48:38 22:52:36 26° 266° (W) 22:56:28 435.000/436.395/437.385
FUNcube-1 29 May 22:50:01 22:54:06 31° 265° (W) 22:58:07 145.935
SPROUT 29 May 22:50:08 22:50:54 11° 62° (ENE) 22:51:54 437.525
Cosmos 2504 29 May 22:54:13 22:59:30 22° 277° (W) 23:04:31 435.465 / 435.565
HUMSAT D 29 May 23:00:06 23:04:17 46° 261° (W) 23:08:26 437.325/437.525
AISAT 29 May 23:02:49 23:07:17 82° 255° (WSW) 23:11:48 437.250
ANTELSAT 29 May 23:04:38 23:08:42 37° 97° (E) 23:12:42 437.575/2403.000
50 SAT 29 May 23:12:45 23:16:41 56° 260° (W) 23:20:36 437.505
QB50P1 29 May 23:21:25 23:25:00 26° 94° (E) 23:28:36 145.935-145.965
POLYITAN 1 29 May 23:25:06 23:28:49 29° 95° (E) 23:32:32 437.675
UKube-1 29 May 23:27:39 23:31:15 24° 266° (W) 23:34:46 .
ZACube-1 29 May 23:34:57 23:36:34 11° 273° (W) 23:37:53 437.345
TIGRISAT 29 May 23:35:46 23:40:10 81° 102° (ESE) 23:44:26 435.000
DX 1 29 May 23:41:59 23:44:54 17° 269° (W) 23:47:40 434.975-435.025
ISS 29 May 23:45:47 23:48:52 41° 334° (NNW) 23:51:59 145.825
O/OREOS (USA 219) 29 May 23:46:07 23:48:42 15° 51° (NE) 23:51:26 437.305
NANOSAT C BR1 29 May 23:51:08 23:55:20 54° 100° (E) 23:59:31 145.865
DANDE 29 May 23:55:28 00:03:11 72° 77° (ENE) 00:09:06 436.750
CUBEBUG 1 29 May 23:55:48 23:59:59 44° 262° (W) 00:04:13 437.445
UNISAT 6 29 May 23:57:43 00:02:01 56° 287° (WNW) 00:06:12 437.425
QB50P2 30 May 00:01:30 00:05:49 75° 102° (ESE) 00:10:03 145.880/145.840
CUSAT 1 30 May 00:05:49 00:12:51 76° 263° (W) 00:18:08 437.405
VELOX 1 30 May 00:08:11 00:11:20 18° 269° (W) 00:14:23 145.980
DUCHIFAT 1 30 May 00:12:15 00:16:33 88° 285° (WNW) 00:20:48 145.980
POPSAT HIP 1 30 May 00:12:58 00:17:17 85° 287° (WNW) 00:21:32 437.405
GONETS M04 30 May 00:14:54 00:23:43 75° 79° (E) 00:32:27
BUGSAT 1 30 May 00:20:54 00:25:12 80° 102° (ESE) 00:29:26 437.445
SPROUT 30 May 00:22:03 00:26:23 83° 258° (WSW) 00:30:45 437.525
ESTCUBE 1 30 May 00:23:12 00:26:41 21° 268° (W) 00:30:05 437.505/2401.250
PCSat 30 May 00:27:32 00:32:54 68° 117° (ESE) 00:38:19 145.827
TISAT 1 30 May 00:32:52 00:37:07 86° 254° (WSW) 00:41:26 437.305
ANTELSAT 30 May 00:41:59 00:45:16 21° 294° (WNW) 00:48:25 437.575/2403.000
QB50P1 30 May 00:57:08 01:00:51 28° 291° (WNW) 01:04:29 145.935-145.965
POLYITAN 1 30 May 01:01:04 01:04:40 26° 292° (WNW) 01:08:09 437.675
VERMONT LUNAR 30 May 01:03:00 01:05:50 28° 160° (SSE) 01:08:40 437.305
Oscar 19 30 May 01:04:08 01:06:07 12° 87° (E) 01:08:24 437.125/150
BEESAT 2 30 May 01:11:57 01:14:59 20° 42° (NE) 01:18:04 435.950
TIGRISAT 30 May 01:15:13 01:16:18 11° 299° (WNW) 01:17:09 435.000
ITUPSAT 1 30 May 01:19:41 01:24:13 48° 72° (ENE) 01:28:50 437.325
Cosmos 2499 30 May 01:19:45 01:26:05 35° 71° (ENE) 01:32:37 435.465 / 435.565
ISS 30 May 01:23:37 01:25:55 18° 354° (N) 01:28:14 145.825
AIST 2 30 May 01:23:58 01:24:56 11° 33° (NNE) 01:26:02 435.215
O/OREOS (USA 219) 30 May 01:24:11 01:28:38 64° 250° (WSW) 01:33:03 437.305
BEESAT 30 May 01:25:10 01:29:48 56° 72° (ENE) 01:34:29 436.000
NANOSAT C BR1 30 May 01:28:17 01:30:46 15° 296° (WNW) 01:33:06 145.865
SWISSCUBE 30 May 01:34:05 01:38:49 75° 75° (ENE) 01:43:36 437.505
QB50P2 30 May 01:39:39 01:41:09 11° 298° (WNW) 01:42:27 145.880/145.840
DANDE 30 May 01:40:08 01:45:22 21° 280° (W) 01:49:38 436.750
CUSAT 1 30 May 01:52:14 01:53:55 11° 285° (WNW) 01:55:05 437.405
BEESAT 3 30 May 01:56:00 02:00:02 56° 53° (NE) 02:04:00 437.485
BUGSAT 1 30 May 01:58:59 02:00:06 11° 298° (WNW) 02:00:58 437.445
PHONESAT 2.4 30 May 02:10:39 02:13:41 28° 159° (SSE) 02:16:44 2401.200-2431.200
PCSat 30 May 02:12:39 02:16:53 22° 317° (NW) 02:21:01 145.827
GONETS M04 30 May 02:13:06 02:19:47 24° 279° (W) 02:26:03
KKS-1 30 May 02:13:42 02:17:39 32° 69° (ENE) 02:21:41 437.445
Gurwin Techsat 1B 30 May 02:20:43 02:24:27 20° 90° (E) 02:28:21 435.225
SO-50 30 May 02:36:55 02:41:32 62° 120° (ESE) 02:46:20 436.795
VERMONT LUNAR 30 May 02:39:34 02:42:45 57° 176° (S) 02:45:55 437.305
Oscar 19 30 May 02:41:02 02:46:13 80° 284° (WNW) 02:51:21 437.125/150
BEESAT 2 30 May 02:49:22 02:53:22 50° 241° (WSW) 02:57:16 435.950
ITUPSAT 1 30 May 02:59:04 03:02:27 19° 269° (W) 03:05:41 437.325
AIST 2 30 May 03:00:15 03:04:27 61° 54° (NE) 03:08:34 435.215
ISS 30 May 03:00:36 03:03:10 21° 14° (NNE) 03:05:45 145.825
ITAMSAT 1 30 May 03:02:23 03:07:27 49° 99° (E) 03:12:31 435.822/435.867
BEESAT 30 May 03:05:04 03:08:04 16° 270° (W) 03:10:54 436.000
STARS 30 May 03:09:10 03:13:37 76° 75° (ENE) 03:18:05 437.465
AO-7 30 May 03:10:02 03:12:40 12° 83° (E) 03:16:01 29.400- 29.500
Cosmos 2499 30 May 03:12:48 03:19:20 41° 270° (W) 03:25:55 435.465 / 435.565
SWISSCUBE 30 May 03:15:29 03:17:20 12° 273° (W) 03:18:54 437.505
BEESAT 3 30 May 03:35:21 03:37:36 14° 249° (WSW) 03:39:40 437.485
